Weather History for KHDC - December, 2013

Change the Weather History Date:

Monday, December 23, 2013

  Actual Average (KMSY) Record (KMSY)
Temperature  
Mean Temperature 44 °F -  
Max Temperature 55 °F 63 °F 81 °F (1970)
Min Temperature 33 °F 45 °F 11 °F (1989)
Degree Days  
Heating Degree Days 21    
Moisture  
Dew Point 37 °F    
Average Humidity 75    
Maximum Humidity 88    
Minimum Humidity 54    
Precipitation  
Precipitation 0.01 in - - ()
Sea Level Pressure  
Sea Level Pressure 30.36 in    
Wind  
Wind Speed 11 mph (NNW)    
Max Wind Speed 17 mph    
Max Gust Speed 24 mph    
Visibility 10 miles    
Events Rain    
Averages and records for this station are not official NWS values.
T = Trace of Precipitation, MM = Missing Value Source: NWS Daily Summary

Daily Weather History Graph

Daily Weather History Graph

Search for Another Location

Airport or City:

Trip Planner

Search our weather history database for the weather conditions in past years. The results will help you decide how hot, cold, wet, or windy it might be!

Date:

Astronomy

Dec. 23, 2013 Rise Set
Actual Time 6:55 AM CST 5:06 PM CST
Civil Twilight 6:29 AM CST 5:32 PM CST
Nautical Twilight 5:59 AM CST 6:02 PM CST
Astronomical Twilight 5:29 AM CST 6:32 PM CST
Moon 10:52 PM CST (12/23) 10:42 AM CST (12/23)
Length of Visible Light 11h 03m
Length of Day
10h 10m
Waning Gibbous, 68% of the Moon is Illuminated
Dec 23
Waning Gibbous
Dec 25
Last Quarter
Jan 1
New
Jan 7
First Quarter
Jan 15
Full

Hourly Weather History & Observations

Time (CST) Temp. Windchill Dew Point Humidity Pressure Visibility Wind Dir Wind Speed Gust Speed Precip Events Conditions
12:15 AM 55.4 °F - 51.8 °F 88% 30.19 in 10.0 mi NW 8.1 mph - 0.01 in Rain Light Rain
12:35 AM 55.4 °F - 51.8 °F 88% 30.15 in 10.0 mi NNW 12.7 mph 19.6 mph 0.01 in   Mostly Cloudy
12:55 AM 55.4 °F - 50.0 °F 82% 30.17 in 10.0 mi NNW 10.4 mph - 0.01 in   Overcast
1:15 AM 55.4 °F - 50.0 °F 82% 30.17 in 10.0 mi NNW 12.7 mph 17.3 mph N/A   Overcast
1:35 AM 53.6 °F - 50.0 °F 88% 30.18 in 10.0 mi NNW 13.8 mph - N/A   Overcast
1:55 AM 53.6 °F - 48.2 °F 82% 30.19 in 10.0 mi NW 10.4 mph - N/A   Overcast
2:15 AM 51.8 °F - 48.2 °F 88% 30.19 in 10.0 mi NW 11.5 mph - N/A   Overcast
2:35 AM 51.8 °F - 48.2 °F 88% 30.21 in 10.0 mi NW 13.8 mph - N/A   Overcast
2:55 AM 50.0 °F - 46.4 °F 87% 30.23 in 7.0 mi NW 8.1 mph - N/A   Overcast
3:15 AM 50.0 °F - 46.4 °F 87% 30.23 in 10.0 mi NNW 10.4 mph - N/A   Overcast
3:35 AM 48.2 °F - 44.6 °F 87% 30.22 in 10.0 mi NNW 8.1 mph - N/A   Overcast
3:55 AM 48.2 °F - 44.6 °F 87% 30.22 in 10.0 mi North 13.8 mph 17.3 mph N/A   Overcast
4:15 AM 48.2 °F - 42.8 °F 82% 30.22 in 10.0 mi NNW 16.1 mph 24.2 mph N/A   Overcast
4:35 AM 46.4 °F 40.7 °F 42.8 °F 87% 30.23 in 10.0 mi NNW 12.7 mph - N/A   Overcast
4:55 AM 46.4 °F 40.7 °F 42.8 °F 87% 30.24 in 10.0 mi NNW 12.7 mph - N/A   Overcast
5:15 AM 46.4 °F 41.1 °F 41.0 °F 81% 30.25 in 10.0 mi North 11.5 mph - N/A   Overcast
5:35 AM 44.6 °F 38.4 °F 41.0 °F 87% 30.27 in 10.0 mi North 12.7 mph - N/A   Overcast
5:55 AM 44.6 °F 38.4 °F 41.0 °F 87% 30.29 in 10.0 mi North 12.7 mph - N/A   Overcast
6:15 AM 44.6 °F 38.1 °F 39.2 °F 81% 30.29 in 10.0 mi NNW 13.8 mph - N/A   Overcast
6:35 AM 44.6 °F 38.8 °F 39.2 °F 81% 30.31 in 10.0 mi North 11.5 mph - N/A   Overcast
6:55 AM 42.8 °F 36.6 °F 39.2 °F 87% 30.33 in 10.0 mi North 11.5 mph - N/A   Overcast
7:15 AM 42.8 °F 36.2 °F 37.4 °F 81% 30.33 in 10.0 mi North 12.7 mph - N/A   Overcast
7:35 AM 42.8 °F 36.2 °F 37.4 °F 81% 30.34 in 10.0 mi North 12.7 mph 17.3 mph N/A   Overcast
7:55 AM 42.8 °F 35.8 °F 37.4 °F 81% 30.34 in 10.0 mi NNW 13.8 mph - N/A   Overcast
8:15 AM 42.8 °F 36.6 °F 37.4 °F 81% 30.35 in 10.0 mi North 11.5 mph 17.3 mph N/A   Overcast
8:35 AM 42.8 °F 35.4 °F 37.4 °F 81% 30.36 in 10.0 mi North 15.0 mph - N/A   Overcast
8:55 AM 42.8 °F 37.5 °F 35.6 °F 76% 30.37 in 10.0 mi North 9.2 mph - N/A   Overcast
9:15 AM 44.6 °F 38.8 °F 35.6 °F 71% 30.38 in 10.0 mi North 11.5 mph - N/A   Overcast
9:35 AM 44.6 °F 38.1 °F 35.6 °F 71% 30.38 in 10.0 mi NNW 13.8 mph 17.3 mph N/A   Overcast
9:55 AM 44.6 °F 38.4 °F 35.6 °F 71% 30.38 in 10.0 mi NNW 12.7 mph - N/A   Overcast
10:15 AM 44.6 °F 38.4 °F 35.6 °F 71% 30.39 in 10.0 mi North 12.7 mph 17.3 mph N/A   Overcast
10:35 AM 44.6 °F 38.4 °F 35.6 °F 71% 30.39 in 10.0 mi NNW 12.7 mph - N/A   Overcast
10:55 AM 44.6 °F 38.1 °F 35.6 °F 71% 30.39 in 10.0 mi North 13.8 mph 19.6 mph N/A   Overcast
11:15 AM 44.6 °F 38.1 °F 35.6 °F 71% 30.39 in 10.0 mi North 13.8 mph - N/A   Overcast
11:35 AM 44.6 °F 37.8 °F 35.6 °F 71% 30.39 in 10.0 mi NNW 15.0 mph - N/A   Overcast
11:55 AM 44.6 °F 38.8 °F 33.8 °F 66% 30.38 in 10.0 mi North 11.5 mph 19.6 mph N/A   Overcast
12:15 PM 44.6 °F 39.7 °F 33.8 °F 66% 30.37 in 10.0 mi North 9.2 mph 16.1 mph N/A   Overcast
12:35 PM 44.6 °F 38.4 °F 33.8 °F 66% 30.37 in 10.0 mi North 12.7 mph 18.4 mph N/A   Overcast
12:55 PM 44.6 °F 37.2 °F 33.8 °F 66% 30.36 in 10.0 mi NNW 17.3 mph 23.0 mph N/A   Overcast
1:15 PM 46.4 °F 41.1 °F 33.8 °F 62% 30.36 in 10.0 mi North 11.5 mph 19.6 mph N/A   Overcast
1:35 PM 46.4 °F 39.8 °F 33.8 °F 62% 30.36 in 10.0 mi NNW 16.1 mph 21.9 mph N/A   Overcast
1:55 PM 46.4 °F 40.7 °F 32.0 °F 57% 30.36 in 10.0 mi North 12.7 mph 19.6 mph N/A   Mostly Cloudy
2:15 PM 48.2 °F - 32.0 °F 54% 30.36 in 10.0 mi North 17.3 mph - N/A   Clear
2:35 PM 48.2 °F - 32.0 °F 54% 30.35 in 10.0 mi North 11.5 mph 18.4 mph N/A   Clear
2:55 PM 48.2 °F - 32.0 °F 54% 30.36 in 10.0 mi NNW 13.8 mph 21.9 mph N/A   Clear
3:15 PM 48.2 °F - 32.0 °F 54% 30.36 in 10.0 mi North 11.5 mph 16.1 mph N/A   Clear
3:35 PM 48.2 °F - 32.0 °F 54% 30.36 in 10.0 mi North 10.4 mph - N/A   Clear
3:55 PM 48.2 °F - 32.0 °F 54% 30.37 in 10.0 mi North 13.8 mph - N/A   Clear
4:15 PM 46.4 °F 41.5 °F 32.0 °F 57% 30.38 in 10.0 mi North 10.4 mph 18.4 mph N/A   Clear
4:35 PM 46.4 °F 42.4 °F 32.0 °F 57% 30.39 in 10.0 mi North 8.1 mph - N/A   Clear
4:55 PM 44.6 °F 40.7 °F 32.0 °F 61% 30.40 in 10.0 mi North 6.9 mph - N/A   Clear
5:15 PM 44.6 °F 43.1 °F 32.0 °F 61% 30.40 in 10.0 mi NNE 3.5 mph - N/A   Clear
5:35 PM 42.8 °F - 32.0 °F 66% 30.41 in 10.0 mi Calm Calm - N/A   Clear
5:55 PM 41.0 °F - 33.8 °F 76% 30.42 in 10.0 mi Calm Calm - N/A   Clear
6:15 PM 39.2 °F 37.0 °F 33.8 °F 81% 30.43 in 10.0 mi North 3.5 mph - N/A   Clear
6:35 PM 39.2 °F 35.9 °F 32.0 °F 75% 30.44 in 10.0 mi North 4.6 mph - N/A   Clear
6:55 PM 37.4 °F 32.8 °F 32.0 °F 81% 30.45 in 10.0 mi North 5.8 mph - N/A   Clear
7:15 PM 39.2 °F 33.6 °F 32.0 °F 75% 30.46 in 10.0 mi North 8.1 mph - N/A   Clear
7:35 PM 39.2 °F 33.6 °F 32.0 °F 75% 30.47 in 10.0 mi North 8.1 mph - N/A   Clear
7:55 PM 37.4 °F 32.8 °F 32.0 °F 81% 30.48 in 10.0 mi NNW 5.8 mph - N/A   Clear
8:15 PM 37.4 °F 30.8 °F 32.0 °F 81% 30.49 in 10.0 mi NNW 9.2 mph - N/A   Clear
8:35 PM 37.4 °F 32.1 °F 32.0 °F 81% 30.49 in 10.0 mi NNW 6.9 mph - N/A   Clear
8:55 PM 37.4 °F 32.8 °F 32.0 °F 81% 30.50 in 10.0 mi NNW 5.8 mph - N/A   Clear
9:15 PM 35.6 °F 30.7 °F 30.2 °F 81% 30.50 in 10.0 mi NNW 5.8 mph - N/A   Clear
9:35 PM 35.6 °F 30.7 °F 30.2 °F 81% 30.50 in 10.0 mi NNW 5.8 mph - N/A   Clear
9:55 PM 35.6 °F 29.9 °F 30.2 °F 81% 30.50 in 10.0 mi NNW 6.9 mph - N/A   Clear
10:15 PM 35.6 °F 29.2 °F 30.2 °F 81% 30.51 in 10.0 mi NNW 8.1 mph - N/A   Clear
10:35 PM 35.6 °F 29.9 °F 30.2 °F 81% 30.51 in 10.0 mi North 6.9 mph - N/A   Clear
10:55 PM 35.6 °F 29.2 °F 30.2 °F 81% 30.51 in 10.0 mi North 8.1 mph - N/A   Clear
11:15 PM 33.8 °F 28.6 °F 30.2 °F 87% 30.51 in 10.0 mi North 5.8 mph - N/A   Clear
11:35 PM 33.8 °F 29.6 °F 28.4 °F 81% 30.51 in 10.0 mi North 4.6 mph - N/A   Clear
11:55 PM 33.8 °F 29.6 °F 28.4 °F 81% 30.50 in 10.0 mi North 4.6 mph - N/A   Clear